Probability
0 0 0 1 1 1 1 1 0 0 2 5 7 7 5 2 4 6 6 5 8 11 11 10 12 14 15 14 11 10 10 10 10 11 11 9 10 10 9 8 7 6 6 6
0 0 1 2 2 1 1 1 1 1 4 7 8 6 4 3 5 7 7 7 9 12 12 11 11 12 13 13 12 11 11 10 10 9 8 7 8 9 8 7 6 6 6 6
0 0 1 2 3 2 2 2 2 3 5 7 7 5 4 6 8 9 8 9 11 12 13 12 10 11 12 12 12 12 12 11 10 8 6 6 6 6 7 6 5 5 5 5
0 0 1 2 3 3 4 4 3 3 3 4 4 4 6 8 10 10 10 13 14 13 13 12 10 10 11 12 12 13 14 12 10 9 7 6 5 5 5 4 4 4 4 4
0 0 2 4 5 5 6 5 3 1 1 2 4 6 8 10 11 12 13 17 18 15 13 11 10 9 11 13 13 14 14 12 10 9 8 7 5 4 3 3 3 3 4 4
1 1 3 5 5 5 6 5 2 1 1 2 4 6 9 11 12 13 15 17 18 16 13 10 9 10 11 12 13 13 12 9 7 6 7 7 5 3 3 3 2 3 4 5
1 2 3 4 4 4 5 4 1 1 2 3 4 7 9 10 11 12 13 14 14 13 11 9 9 9 10 10 10 10 9 6 4 4 6 6 6 5 5 4 4 5 6 6
1 2 3 3 3 4 4 3 2 2 3 5 6 7 8 7 8 10 11 10 10 9 8 7 6 6 7 7 7 6 5 5 6 7 7 7 7 7 6 6 6 7 7 7
1 3 4 2 2 3 2 1 1 2 3 5 7 7 6 5 5 6 7 7 7 6 6 5 4 4 5 5 6 5 5 7 10 12 11 9 8 8 7 6 6 7 7 7
2 2 2 1 1 1 1 1 2 2 2 3 4 4 4 4 4 4 4 4 4 5 6 5 4 4 4 5 6 6 8 11 14 15 14 11 10 10 9 7 6 7 8 8
2 1 0 0 0 0 1 2 3 3 2 1 2 3 4 4 4 4 3 2 3 4 6 6 5 5 6 7 8 10 11 13 15 15 14 13 12 11 9 7 6 6 7 8
1 0 0 0 0 1 2 3 4 3 2 2 2 3 3 3 3 3 3 2 2 4 6 6 6 6 7 8 9 11 12 12 12 12 12 11 11 10 7 5 4 4 5 5
0 0 0 0 0 1 2 3 3 3 2 2 2 2 2 2 2 3 3 2 2 3 5 6 6 6 6 8 9 11 11 10 10 9 9 9 9 9 6 4 3 3 3 3
0 0 0 0 0 1 1 2 2 3 2 1 1 1 1 1 1 2 3 3 3 3 4 5 5 4 5 6 8 8 8 8 8 8 7 7 8 9 7 4 3 3 3 2
0 0 0 0 0 0 0 0 1 2 2 1 1 0 0 0 1 2 4 4 4 3 3 4 4 3 3 4 5 5 6 6 6 6 6 6 7 8 6 3 2 2 2 1
0 0 0 0 0 0 0 0 0 1 2 2 2 1 0 0 2 4 4 4 4 4 4 3 3 4 4 3 3 3 4 3 3 4 5 6 6 6 4 1 0 1 1 1
0 0 0 0 0 0 0 0 0 0 1 2 2 1 0 0 2 4 4 4 4 5 4 4 4 4 4 4 3 3 3 2 2 3 4 4 4 4 3 1 0 0 0 1
0 0 0 0 0 0 0 0 0 0 0 1 1 1 0 0 1 3 3 3 4 4 4 3 3 4 4 3 3 3 3 2 2 3 3 3 3 3 3 2 1 0 0 0
0 0 0 0 0 0 0 0 0 0 0 0 0 0 0 0 1 2 3 3 3 3 3 3 3 4 4 3 3 3 3 2 3 3 3 3 3 3 3 2 1 0 0 0
0 0 0 0 0 0 0 0 0 0 0 0 0 0 0 0 0 1 3 3 3 3 3 3 4 5 5 4 3 3 3 3 3 3 3 3 3 3 3 2 1 0 0 0
0 0 0 0 0 0 0 1 1 1 0 0 0 1 0 0 0 1 2 3 3 3 3 3 3 4 4 3 3 3 3 3 3 3 3 3 3 3 2 1 0 0 0 0
0 0 0 0 0 0 0 1 2 2 1 0 0 0 0 0 0 1 2 3 3 3 3 3 3 3 3 2 3 3 3 3 3 3 3 3 2 1 1 0 0 0 0 0
0 0 0 0 0 0 0 0 1 2 1 0 0 0 0 0 0 1 2 2 1 1 2 2 1 1 1 2 3 3 3 3 3 2 2 1 1 0 0 0 0 0 0 0
1 1 0 0 0 0 0 0 0 1 1 0 0 0 0 0 1 2 3 2 0 1 1 1 0 0 1 2 3 3 3 2 1 1 1 0 0 0 0 0 0 0 0 0
2 1 0 0 0 0 0 0 0 1 1 0 0 0 0 1 2 3 3 2 1 0 0 0 0 0 1 3 3 2 1 1 0 0 0 0 0 0 0 0 0 0 0 0
1 1 0 0 0 0 0 0 0 1 1 1 1 0 1 2 3 3 3 2 1 0 0 0 0 0 1 2 2 1 0 0 0 0 0 0 0 0 0 0 0 0 0 0
0 0 0 0 0 0 0 0 0 1 2 2 2 1 2 3 3 3 3 2 1 0 0 0 0 0 1 1 1 0 0 0 0 0 0 0 0 0 0 0 0 0 0 0
Wind_Speed
8 7 7 8 8 8 10 10 10 8 7 2 2 2 2 2 3 3 3 2 2 1 1 2 2 2 2 2 2 2 2 2 2 3 3 3 3 3 3 4 3 3 4 4
9 8 9 9 9 9 9 9 9 8 5 1 1 1 2 2 3 3 2 1 1 1 1 2 2 2 2 2 2 3 3 3 2 3 3 3 3 4 4 4 4 4 4 4
8 7 10 11 8 9 8 6 7 8 3 1 2 3 3 3 3 2 2 1 1 1 1 2 2 2 2 2 2 3 3 3 3 3 3 4 4 4 4 4 4 5 5 4
7 7 11 2 0 4 6 6 5 4 2 2 1 2 2 3 3 2 2 1 1 1 1 1 2 2 2 3 3 3 3 3 3 3 3 4 4 4 4 4 4 4 4 5
7 9 8 4 3 4 6 5 3 3 1 1 1 3 4 2 1 2 1 1 1 1 1 1 2 2 3 3 3 3 2 2 3 3 3 4 4 4 4 4 4 4 5 5
8 9 9 2 2 2 5 6 0 1 2 2 4 5 2 2 1 1 1 1 1 1 1 1 1 2 3 3 2 2 2 3 3 3 3 4 3 3 3 3 4 4 4 4
10 9 6 2 2 3 7 0 3 0 1 2 2 3 3 2 2 2 2 2 1 1 1 1 2 2 3 3 2 2 2 3 3 3 4 4 3 3 3 3 3 3 3 4
7 9 4 4 3 2 3 4 1 0 0 0 1 2 2 2 2 2 2 2 2 2 1 1 2 2 2 2 2 2 3 3 3 3 3 3 3 3 3 3 3 3 4 4
3 2 4 1 1 3 2 1 1 0 1 1 2 2 2 2 2 2 2 2 2 1 1 1 2 2 3 3 2 3 3 3 3 3 3 3 3 3 3 3 3 3 3 3
4 2 0 1 0 0 1 1 1 0 1 2 2 2 2 2 2 2 2 1 1 2 2 1 2 2 3 3 2 3 3 3 3 3 3 2 3 3 3 3 3 3 3 3
6 4 2 2 1 0 0 0 0 1 1 1 1 1 2 1 2 1 2 1 1 2 2 2 2 2 2 2 2 3 3 3 3 3 3 2 2 2 3 2 2 3 3 3
4 3 4 2 1 1 1 1 1 1 1 1 1 1 1 1 1 1 1 2 2 2 2 1 1 2 2 2 3 3 3 3 3 3 2 3 3 2 0 1 1 2 4 4
4 4 3 2 1 1 1 1 0 0 0 0 1 1 0 1 1 1 1 2 2 2 2 1 1 1 2 2 3 3 3 3 3 3 2 3 3 3 2 2 2 3 3 3
2 3 3 2 2 1 0 0 0 1 1 1 1 0 0 1 1 1 1 2 2 2 2 1 1 1 2 2 2 3 3 2 3 3 3 2 2 3 3 3 3 3 4 5
3 4 3 2 2 2 2 2 2 1 2 1 1 1 1 1 1 1 1 1 2 2 2 2 2 2 2 2 2 3 3 2 2 2 3 2 2 3 3 3 2 2 2 2
3 4 3 3 3 2 2 3 3 2 2 2 2 2 2 2 2 2 1 2 2 2 2 2 2 2 2 2 3 3 2 1 2 3 3 2 2 2 2 1 2 2 2 1
4 4 4 3 3 3 3 3 3 2 2 2 2 2 2 2 2 2 2 2 2 2 2 3 3 3 3 3 4 3 2 2 3 3 3 2 2 2 1 1 2 2 2 2
4 4 4 4 4 4 4 4 3 3 3 3 3 3 3 3 3 3 3 2 2 2 2 3 2 3 3 2 3 3 3 2 2 3 3 2 2 2 2 2 2 3 2 1
2 2 3 3 3 4 4 4 3 3 3 3 4 3 3 3 3 3 3 3 3 3 2 2 2 4 3 2 3 3 3 3 3 3 3 2 3 3 3 3 3 3 3 2
2 2 2 2 3 3 4 3 3 3 3 4 4 4 4 4 4 4 4 4 3 2 1 1 3 3 3 2 4 4 3 3 3 3 3 3 3 3 3 3 3 3 3 3
2 2 2 3 3 3 3 3 3 4 4 4 4 4 4 4 4 4 4 4 2 2 3 3 4 3 3 2 5 4 3 3 3 3 3 3 3 3 3 3 3 3 3 2
2 2 2 2 3 3 3 4 5 5 5 4 4 4 4 4 5 5 4 3 2 1 3 3 2 0 2 4 4 3 3 3 3 3 3 2 2 2 2 3 3 3 3 2
2 2 3 3 3 4 4 5 5 5 5 5 5 5 4 4 4 3 3 2 2 2 3 1 1 2 2 5 3 3 3 3 3 3 2 2 2 2 2 3 3 2 2 2
3 3 3 4 4 4 5 5 5 4 4 4 4 4 4 4 3 3 2 2 3 3 3 2 4 3 5 4 3 3 2 2 3 3 2 2 2 2 2 3 3 3 2 3
3 3 3 4 4 4 4 4 4 5 5 4 4 4 4 3 3 2 1 1 2 3 3 4 6 6 5 3 2 2 2 1 2 2 2 2 2 2 2 2 3 2 2 2
4 4 3 4 3 3 3 3 3 3 3 3 2 2 2 2 2 2 2 3 4 3 4 2 3 4 4 2 2 2 1 1 1 2 3 3 3 2 2 3 3 3 3 2
4 4 3 4 4 4 4 3 3 3 3 2 2 2 2 2 2 2 2 2 3 3 2 2 2 3 2 2 2 2 2 2 2 2 2 2 2 2 2 3 3 3 2 2
Wind_Direction
263 268 258 252 249 239 245 262 271 275 275 273 225 217 169 158 160 161 161 155 151 159 158 174 169 170 177 172 178 194 208 211 215 228 231 234 240 244 246 246 243 242 243 246
249 244 248 250 248 244 245 256 263 270 273 350 168 173 167 167 168 173 172 169 168 178 185 192 188 188 182 179 194 205 219 223 222 228 235 239 244 245 245 246 246 241 240 241
245 241 248 242 241 242 239 247 261 266 283 181 198 200 202 201 199 203 195 185 203 199 196 203 209 210 207 200 203 209 220 226 224 233 239 244 246 244 244 244 242 242 241 239
251 240 243 238 330 263 253 250 260 273 271 224 228 216 197 201 200 207 198 189 207 215 193 199 199 208 212 209 203 213 223 233 235 239 241 245 246 246 247 246 244 241 239 238
251 249 248 210 211 240 248 247 267 259 238 212 169 192 175 170 214 211 191 162 166 224 195 191 199 203 207 215 214 220 230 244 248 244 244 244 247 246 244 243 245 242 236 234
246 253 253 232 141 254 250 232 115 263 210 192 217 235 138 119 159 140 117 117 137 171 180 184 195 196 202 218 226 241 245 250 255 256 251 246 247 247 243 240 242 248 241 239
247 249 252 68 117 206 235 321 62 300 221 219 250 351 65 121 126 111 100 106 131 143 156 208 220 216 219 233 244 258 257 250 248 253 255 250 246 246 243 242 245 252 248 242
243 244 239 85 169 234 13 46 62 37 224 232 77 89 113 128 133 132 119 127 148 157 172 203 214 219 232 248 266 271 266 256 251 249 250 243 241 242 239 240 237 242 243 248
281 313 42 78 51 40 34 38 17 45 125 160 175 154 135 134 144 156 160 163 177 185 194 215 221 230 241 243 255 257 260 257 255 252 245 243 239 237 234 233 248 251 242 242
256 254 254 205 178 59 347 337 355 96 154 178 185 181 160 154 160 170 171 190 208 217 220 224 239 250 245 243 250 253 251 250 242 237 236 236 251 250 254 252 251 254 249 251
250 269 261 222 228 236 6 282 194 158 155 178 182 169 157 168 175 181 184 198 220 238 247 256 242 244 243 238 236 245 251 254 244 235 232 232 242 274 264 270 288 277 264 256
276 288 279 297 296 271 248 243 195 142 128 118 136 149 147 170 179 189 203 208 218 235 244 255 245 239 237 241 237 241 249 253 255 249 236 235 227 229 342 286 306 281 296 289
290 301 297 302 266 264 266 262 232 184 140 123 116 123 147 162 202 208 220 227 234 247 246 239 236 247 249 240 239 242 255 260 264 262 249 248 245 244 239 224 223 237 248 262
267 268 254 254 252 230 247 288 244 206 185 163 142 155 157 168 205 232 225 238 243 242 238 240 254 273 272 251 253 254 256 250 263 267 269 265 260 257 255 254 233 222 213 221
250 251 264 266 250 227 226 221 222 208 177 167 186 209 227 233 250 267 257 245 234 238 248 267 285 298 281 261 254 261 265 263 261 276 274 272 268 259 259 272 270 253 240 188
241 237 239 234 229 224 224 225 232 226 219 212 216 230 258 266 263 269 252 232 238 248 256 264 275 285 272 263 260 252 249 270 276 276 273 274 274 271 271 277 288 300 294 297
226 225 230 235 234 234 237 240 241 237 245 240 238 245 257 258 256 262 272 269 258 256 258 260 265 271 267 265 268 266 256 211 218 259 276 288 292 291 285 272 274 277 284 319
242 247 245 245 245 243 244 240 238 234 234 242 237 233 241 256 269 281 287 287 274 264 261 264 280 280 267 263 271 273 267 256 241 256 274 283 292 289 281 268 268 269 266 227
218 222 230 240 241 237 236 233 235 236 234 236 236 237 240 252 271 279 278 274 271 263 261 266 250 258 264 268 279 256 261 263 253 249 261 258 256 260 262 265 268 272 275 273
226 224 231 237 237 234 235 235 244 248 250 250 248 250 251 259 269 272 267 261 266 287 282 267 254 257 263 251 262 256 250 253 258 254 251 257 261 262 261 259 259 269 278 280
231 232 234 239 242 241 236 234 237 239 244 248 253 257 258 258 260 260 259 258 251 265 256 216 235 256 262 274 245 253 251 252 256 257 256 257 261 270 278 282 281 280 280 282
254 251 250 249 247 246 242 238 237 241 240 244 250 250 248 247 248 248 243 256 264 208 247 244 238 39 309 276 252 255 258 264 268 273 277 278 277 277 281 285 288 290 288 286
270 265 259 258 257 255 249 244 241 242 243 247 249 250 252 259 263 256 243 222 234 201 238 259 71 99 270 258 263 258 256 258 262 266 269 273 275 279 283 286 288 295 300 296
260 258 257 258 256 247 244 246 244 241 244 250 248 242 241 241 238 239 244 157 178 204 237 134 146 190 238 249 257 259 258 260 266 269 269 271 274 277 283 285 283 282 287 292
258 257 255 253 251 244 240 238 233 232 238 240 239 230 230 238 242 231 225 206 171 211 226 176 181 207 233 249 255 261 260 276 302 300 283 276 273 277 282 282 283 286 290 290
249 247 250 253 261 260 245 240 243 242 236 232 230 222 212 211 215 215 214 212 214 219 243 230 193 207 231 241 246 251 257 224 224 253 270 278 282 285 291 294 287 284 287 287
239 239 240 245 240 237 238 240 245 248 246 237 230 220 215 218 218 222 228 228 223 224 229 236 234 230 231 235 238 237 240 243 249 256 260 261 269 276 279 279 280 280 279 278